Regional Weather Roundup
Issued by NWS Upton, NY

Current Version | Previous Version | Text Only | Print | Product List | Glossary Off
Versions: 1 2 3 4 5 6 7 8 9 10 11 12 13 14 15 16 17 18 19 20 21 22 23 24 25 26 27

000
ASUS41 KOKX 242009
RWROKX

REGIONAL WEATHER ROUNDUP
NATIONAL WEATHER SERVICE NEW YORK NY
400 PM EDT SAT JUN 24 2017

NOTE: "FAIR" INDICATES FEW OR NO CLOUDS BELOW 12,000 FEET WITH NO
SIGNIFICANT WEATHER AND/OR OBSTRUCTIONS TO VISIBILITY.

NYZ071-072-176-178-NJZ106-104-242100-
NEW YORK CITY METRO AREA

CITY           SKY/WX    TMP DP  RH WIND       PRES   REMARKS
Central Park   MOSUNNY   83  55  38 MISG      29.80R
Bronx Bot Gard NOT AVBL
LaGuardia APRT MOSUNNY   86  53  32 W21G29    29.76R
Kennedy INTL   PTSUNNY   85  56  37 NW16G24   29.76R
Breezy Point     N/A     81 N/A N/A W13G21      N/A
Newark/Liberty MOSUNNY   87  53  31 W18G30    29.76R
Teterboro      MOSUNNY   83  54  36 W16G24    29.76R
$$

NYZ177-179-078>081-242100-
LONG ISLAND NEW YORK

CITY           SKY/WX    TMP DP  RH WIND       PRES   REMARKS
Jones Beach      N/A     81 N/A N/A NW18        N/A
Matinecock PT  NOT AVBL
Farmingdale    NOT AVBL
MacArthur/ISP  MOSUNNY   86  55  34 NW21G28   29.73R
Shirley        SUNNY     86  60  41 NW18G29   29.74R
Mt Sinai Harb    N/A     82 N/A N/A W9G16       N/A
Westhampton    SUNNY     87  56  34 W14G25    29.74R
East Hampton   FAIR      83  63  49 W13G18    29.71R
Montauk          N/A     83  62  49 W8        29.71R
$$

NYZ052-065-067-242100-
HUDSON VALLEY

CITY           SKY/WX    TMP DP  RH WIND       PRES   REMARKS
White Plains   NOT AVBL
Larchmont Harb   N/A     82 N/A N/A W20         N/A
Croton O-T Hud   N/A     82 N/A N/A NW14        N/A
Newburgh       MOSUNNY   81  55  41 NW12G23   29.79R
Montgomery     PTSUNNY   83  54  36 VRB7      29.77R
Poughkeepsie   MOSUNNY   82  52  35 W13       29.75R
Albany         MOSUNNY   80  52  37 W21G32    29.74R
$$

NJZ001-105-106-008-010-013-015-019>022-104-242100-
NEW JERSEY

CITY           SKY/WX    TMP DP  RH WIND       PRES   REMARKS
Newark/Liberty MOSUNNY   87  53  31 W18G30    29.76R
Teterboro      MOSUNNY   83  54  36 W16G24    29.76R
Caldwell       PTSUNNY   87  54  32 NW12G22   29.79R
Somerville     CLOUDY    84  59  42 VRB6      29.78R
Linden         FAIR      84  52  32 NW16G23   29.78R
Perth Amboy      N/A     82 N/A N/A NW17G24     N/A
Sussex         MOSUNNY   82  54  37 NW8       29.80R
Andover          N/A     80  52  37 NW8       29.81R
Trenton        MOSUNNY   83  56  39 NW12      29.80R
Millville      MOSUNNY   86  62  44 W13       29.84R
Atlantic City  SUNNY     87  59  38 NW16G28   29.82R
Wrightstown    MOSUNNY   85  59  40 NW9G20    29.78R
Toms River     SUNNY     87  60  40 NW10      29.81R
Belmar         SUNNY     85  59  41 W15G23    29.80R
$$

PAZ047>061-062-071-242100-
EASTERN PENNSYLVANIA

CITY           SKY/WX    TMP DP  RH WIND       PRES   REMARKS
Philadelphia   PTSUNNY   87  57  35 W15G26    29.83R
Allentown      CLOUDY    84  58  40 W13       29.82R
Scranton       MOSUNNY   83  55  38 SW9       29.81S
$$

CTZ002-004>006-009-010-012-RIZ004-006-007-MAZ004-011-015-242100-
SOUTHERN NEW ENGLAND
 IN CT

CITY           SKY/WX    TMP DP  RH WIND       PRES   REMARKS
Bradley INTL   MOSUNNY   85  53  33 NW16G25   29.71R
Hartford       SUNNY     84  55  36 NW14G22   29.71R
Danbury        MOSUNNY   83  54  36 NW13      29.77R
Wtrbury/Oxford MOSUNNY   81  54  39 NW12G21   29.78R
Bridgeport     SUNNY     89  55  31 NW16G23   29.72R
Meriden        SUNNY     85  55  35 NW15G24   29.71R
New Haven      MOSUNNY   84  54  34 NW12G18   29.71R
Chester        FAIR      82  57  42 NW13      29.72R
Groton         MOSUNNY   87  60  40 NW10G25   29.68R
Wilimantic     SUNNY     85  55  35 W15G26    29.70R

 IN RI

CITY           SKY/WX    TMP DP  RH WIND       PRES   REMARKS
Providence     MOSUNNY   85  62  46 W16G23    29.66R
Block Island   SUNNY     78  62  57 W15G24    29.70R
Westerly       SUNNY     86  58  38 NW8       29.69R
 IN MA

CITY           SKY/WX    TMP DP  RH WIND       PRES   REMARKS
Boston         MOSUNNY   87  61  41 W17G25    29.61R
Worcester      SUNNY     80  57  45 W17G23    29.70R
Westfield      SUNNY     82  54  37 W20G28    29.70R
Provincetown   SUNNY     78  72  81 SW9       29.62R
Nantucket      PTSUNNY   73  69  87 W21G30    29.66R
$$

ANZ330-335-338-340-345-350-353-355-242100-
COASTAL MARINE OBSERVATIONS


STATION/POSITION TIME  SKY/WX   TEMP    WIND        PRES    VSBY  WAVE
                                AIR SEA DIR/SP/G                  HT/PER
                 (UTC)          (F)     (DEG/KT/KT) (MB)    (MI)  (FT/S)
NY HARB ENTRANCE 1850            74 67  280/ 12/ 14 1007.3          5/ 8
20 S FIRE ISLAND 1950            74 67  280/ 16/ 17 1007.2          7/ 8
GREAT SOUTH BAY  1930            81 76  310/ 17/ 21   N/A
23 SSW MONTAUK P 1950            68 64              1006.6          8/ 8
15 E BARNEGAT LI 1930               62                N/A           6/ 9
HUDSON CANYON    1950            71 68  240/ 16/ 17 1008.4          9/ 9
KINGS POINT      1930            80 67  320/ 14/ 21 1007.4
EXECUTION ROCKS  1945            79     300/ 12/ 19   N/A
CENTRAL LI SOUND 1930            77     250/ 10/ 12   N/A           1
EASTERN LI SOUND NOT AVBL
ROBBINS REEF     1948                   310/ 20/ 25 1008.3
$$


>>>>>>>>>>>>>>>>>>>>>>>>>>>> KEY <<<<<<<<<<<<<<<<<<<<<<<<<<<
>                                                          <
>     SKY/WX - Sky Condition/Present Weather               <
>     TMP    - Temperature in Fahrenheit                   <
>     DP     - Dew Point in Fahrenheit                     <
>     RH     - Relative Humidity in Percent                <
>     WIND   - Direction (from) and Speed in MPH           <
>     PRES   - Mean Sea Level Pressure (inches of Hg)      <
>     WCI    - Wind Chill Index                            <
>     VSB    - VISIBILITY IN MILES                         <
>     HX     - HEAT INDEX                                  <
>     TC     - TEMPERATURE IN CELSIUS                      <
>     VRB    - VARIABLE WIND DIRECTION                     <
>                                                          <
>>>>>>>>>>>>>>>>>>>>>>>>>>>> KEY <<<<<<<<<<<<<<<<<<<<<<<<<<<




USA.gov is the U.S. government's official web portal to all federal, state and local government web resources and services.